DW9442 Weather Reports


Display with metric or nautical units.
time (UTC)temp
F
wind
direction
speed
MPH
gust
MPH
rain 1hr
in
rain 24hr
in
rain mn
in
humidity
%
barometer
mb
20260903023024 62 323 0.0 0.0 0.00 0.00 0.00 90 1021.1
20260903021514 62 323 0.0 0.0 0.00 0.00 0.00 89 1021.0
20260903020053 63 323 0.0 1.0 0.00 0.00 0.00 87 1020.9
20260903013022 62 309 0.0 1.0 0.00 0.00 0.00 88 1021.1
20260903011506 63 309 0.0 0.0 0.00 0.00 0.00 87 1021.1
20260903010052 63 309 0.0 2.0 0.00 0.00 0.00 87 1021.0
20260903004531 63 297 1.0 2.0 0.00 0.00 0.00 86 1020.9
20260903003008 64 283 0.0 1.0 0.00 0.00 0.00 84 1020.9
20260903001546 65 282 0.0 1.0 0.00 0.00 0.00 84 1020.9
20260903000035 65 252 0.0 1.0 0.00 0.00 0.00 83 1020.8
20260902234520 65 246 0.0 0.0 0.00 0.00 0.00 83 1020.8
20260902233006 65 245 0.0 0.0 0.00 0.00 0.00 83 1020.8
20260902231604 65 243 0.0 0.0 0.00 0.00 0.00 83 1020.9
20260902230033 66 243 0.0 0.0 0.00 0.00 0.00 83 1020.8
20260902224509 66 258 0.0 2.0 0.00 0.00 0.00 82 1020.7
20260902223047 66 261 0.0 1.0 0.00 0.00 0.00 83 1020.6
20260902221528 67 84 0.0 0.0 0.00 0.00 0.00 81 1020.5
20260902220009 68 84 0.0 0.0 0.00 0.00 0.00 79 1020.4
20260902214542 68 84 0.0 0.0 0.00 0.00 0.00 77 1020.2
20260902213017 69 69 0.0 3.0 0.00 0.00 0.00 77 1020.2
20260902211557 69 68 3.0 6.0 0.00 0.00 0.00 77 1020.1
20260902210028 68 269 0.0 1.0 0.00 0.00 0.00 79 1020.0
20260902204501 68 296 0.0 1.0 0.00 0.00 0.00 80 1019.9
20260902203038 68 10 0.0 1.0 0.00 0.00 0.00 79 1019.7
20260902201506 69 10 0.0 2.0 0.00 0.00 0.00 78 1019.8
20260902200050 69 264 0.0 1.0 0.00 0.00 0.00 77 1019.7
20260902194531 69 264 1.0 2.0 0.00 0.00 0.00 77 1019.6
20260902193002 70 81 0.0 3.0 0.00 0.00 0.00 75 1019.4
20260902191535 71 77 2.0 4.0 0.00 0.00 0.00 74 1019.2
20260902190059 71 70 1.0 2.0 0.00 0.00 0.00 72 1018.9
20260902184527 72 60 1.0 3.0 0.00 0.00 0.00 69 1018.8
20260902183100 73 30 1.0 2.0 0.00 0.00 0.00 68 1018.6
20260902181530 73 18 0.0 1.0 0.00 0.00 0.00 69 1018.3
20260902180130 74 89 0.0 1.0 0.00 0.00 0.00 68 1018.3
20260902174530 74 351 0.0 2.0 0.00 0.00 0.00 67 1018.2
20260902173052 75 304 1.0 2.0 0.00 0.00 0.00 67 1018.0
20260902171522 75 316 2.0 4.0 0.00 0.00 0.00 66 1017.8
20260902170046 76 325 1.0 2.0 0.00 0.00 0.00 66 1017.8
20260902164518 76 70 1.0 3.0 0.00 0.00 0.00 65 1017.7
20260902163057 77 339 1.0 4.0 0.00 0.00 0.00 62 1017.7
20260902161521 78 62 0.0 2.0 0.00 0.00 0.00 59 1017.6
20260902160056 80 245 0.0 2.0 0.00 0.00 0.00 55 1017.8
20260902154543 81 195 0.0 2.0 0.00 0.00 0.00 53 1017.7
20260902153012 82 149 0.0 6.0 0.00 0.00 0.00 50 1017.7
20260902151544 82 248 3.0 6.0 0.00 0.00 0.00 49 1017.9
20260902150014 82 226 3.0 5.0 0.00 0.00 0.00 49 1018.1
20260902144546 84 229 2.0 5.0 0.00 0.00 0.00 47 1018.0
20260902143018 84 217 3.0 7.0 0.00 0.00 0.00 46 1018.2
20260902141549 83 316 1.0 6.0 0.00 0.00 0.00 51 1018.2
20260902140019 84 16 0.0 3.0 0.00 0.00 0.00 48 1018.3
20260902134551 83 262 3.0 6.0 0.00 0.00 0.00 46 1018.4
20260902133022 84 189 2.0 5.0 0.00 0.00 0.00 48 1018.5
20260902131550 83 139 0.0 2.0 0.00 0.00 0.00 49 1018.6
20260902130020 83 203 2.0 4.0 0.00 0.00 0.00 49 1018.7
20260902124555 82 196 0.0 3.0 0.00 0.00 0.00 52 1018.8
20260902123020 82 192 1.0 4.0 0.00 0.00 0.00 52 1019.0
20260902121559 80 282 2.0 5.0 0.00 0.00 0.00 54 1019.2
20260902120020 80 264 2.0 4.0 0.00 0.00 0.00 58 1019.3
20260902114552 80 285 0.0 3.0 0.00 0.00 0.00 55 1019.4
20260902113033 80 148 2.0 4.0 0.00 0.00 0.00 54 1019.5
20260902111555 81 210 1.0 3.0 0.00 0.00 0.00 54 1019.8
20260902110024 81 151 0.0 3.0 0.00 0.00 0.00 54 1019.9
20260902104504 79 81 1.0 3.0 0.00 0.00 0.00 55 1020.2
20260902103041 79 269 2.0 4.0 0.00 0.00 0.00 56 1020.4
20260902101505 78 321 2.0 3.0 0.00 0.00 0.00 57 1020.6
20260902100042 77 148 0.0 3.0 0.00 0.00 0.00 58 1020.5
20260902094508 76 148 0.0 4.0 0.00 0.00 0.00 59 1020.8
20260902093032 76 225 0.0 2.0 0.00 0.00 0.00 61 1021.0
20260902091502 75 289 0.0 3.0 0.00 0.00 0.00 63 1021.1
20260902090034 74 214 0.0 2.0 0.00 0.00 0.00 65 1021.1
20260902084504 73 146 0.0 3.0 0.00 0.00 0.00 65 1021.1
20260902083040 73 52 1.0 2.0 0.00 0.00 0.00 66 1021.2
20260902081507 72 102 0.0 2.0 0.00 0.00 0.00 69 1021.2
20260902080038 70 84 2.0 6.0 0.00 0.00 0.00 71 1021.2
20260902074607 71 129 0.0 3.0 0.00 0.01 0.00 70 1021.2
20260902073038 70 163 1.0 3.0 0.00 0.01 0.00 72 1021.2
20260902071502 69 214 0.0 3.0 0.00 0.01 0.00 74 1021.1
20260902070036 69 138 1.0 3.0 0.00 0.01 0.00 73 1021.0
20260902064504 68 219 0.0 2.0 0.00 0.01 0.00 75 1021.0
20260902063047 67 236 0.0 2.0 0.00 0.01 0.00 77 1021.1
20260902061507 67 105 0.0 0.0 0.00 0.01 0.00 78 1021.1
20260902060034 65 149 0.0 0.0 0.00 0.01 0.00 80 1021.0
20260902054602 64 272 0.0 0.0 0.00 0.01 0.00 83 1020.9
20260902053034 63 272 0.0 0.0 0.00 0.01 0.00 86 1020.8
20260902051516 61 272 0.0 0.0 0.00 0.01 0.00 87 1020.8
20260902050047 61 272 0.0 0.0 0.00 0.01 0.00 87 1020.7
20260902044515 61 271 0.0 0.0 0.00 0.01 0.00 88 1020.7
20260902043047 61 264 0.0 0.0 0.00 0.01 0.00 87 1020.7
20260902041507 62 264 0.0 0.0 0.00 0.01 0.00 86 1020.6
20260902040040 61 278 0.0 0.0 0.00 0.01 0.00 86 1020.5
20260902034510 61 288 0.0 0.0 0.00 0.01 0.00 87 1020.6
20260902033040 62 342 0.0 2.0 0.00 0.01 0.00 86 1020.6
20260902031510 62 314 0.0 0.0 0.00 0.01 0.00 85 1020.6
20260902030042 62 314 0.0 1.0 0.00 0.01 0.00 85 1020.6
20260902024511 62 287 0.0 1.0 0.00 0.01 0.00 85 1020.7